[[{"header":{"parameterUnit":"m.s-1","parameterCategory":1,"la1":30.2991,"la2":30.254,"lo1":-89.0895,"lo2":-89.0444,"dy":0.0017,"dx":0.0017,"nx":28,"ny":28,"refTime":"2024-05-03T09:00:00:Z","depth":0,"parameterNumber":2,"parameterNumberName":"U-component_of_WINDS"},"data":[0,0,0,0,0,0,0,0,0,0,0,0,0,0,0,0,0,0,0,0,0,0,0,0,0,0,0,0,0,0,0,0,0,0,0,0,0,0,0,0,0,0,0,0,0,0,0,0,0,0,0,0,0,0,0,0,0,0,-2.3061,-2.3062,0,-2.3181,-2.3182,-2.3184,-2.3204,-2.3203,-2.3202,-2.3201,-2.3324,-2.3328,-2.3332,0,0,0,0,0,0,0,0,0,0,0,0,0,-2.285,-2.2854,-2.3061,-2.3062,-2.3064,-2.3181,-2.3182,-2.3184,-2.3204,-2.3203,-2.3201,-2.32,-2.3322,-2.3327,-2.3332,0,0,0,0,0,0,0,0,0,0,0,0,0,-2.2953,-2.2855,-2.3061,-2.3088,-2.3091,-2.318,-2.3182,-2.3184,-2.3204,-2.3203,-2.3201,-2.32,-2.3321,-2.3327,-2.3333,-2.3403,0,0,-2.3352,-2.3355,0,0,0,0,0,0,0,0,-2.2947,-2.2961,-2.3082,-2.3086,-2.309,-2.3176,-2.3153,-2.3258,-2.3204,-2.3161,-2.3201,-2.3199,-2.3276,-2.3286,-2.3311,-2.3409,-2.3414,-2.3353,-2.3357,-2.3359,-2.3361,0,0,0,0,0,0,0,-2.294,-2.2956,-2.3108,-2.3084,-2.3089,-2.3095,-2.3107,-2.3173,-2.3226,-2.3165,-2.3167,-2.3181,-2.3278,-2.3305,-2.3314,-2.3416,-2.3353,-2.3358,-2.3362,-2.3365,-2.3577,-2.3579,0,0,0,0,0,0,-2.2928,-2.295,-2.3104,-2.3112,-2.3014,-2.31,-2.3114,-2.315,-2.3225,-2.3235,-2.3182,-2.3181,-2.3295,-2.3307,-2.3319,-2.3406,-2.3359,-2.3365,-2.3369,-2.3576,-2.3578,-2.358,0,0,0,0,0,0,-2.2923,-2.2942,-2.31,-2.3031,-2.3052,-2.3105,-2.3145,-2.3153,-2.3181,-2.3238,-2.3247,-2.32,-2.3294,-2.331,-2.3382,-2.341,-2.3368,-2.3374,-2.3573,-2.3576,-2.3579,-2.358,0,0,0,0,0,0,-2.2917,-2.294,-2.2967,-2.3032,-2.3055,-2.316,-2.3147,-2.3156,-2.3192,-2.3192,-2.3258,-2.3267,-2.3294,-2.3372,-2.3388,-2.3418,-2.3379,-2.3571,-2.3575,-2.3578,-2.3577,-2.3582,-2.3586,0,0,0,0,0,-2.291,-2.2962,-2.2968,-2.2986,-2.309,-2.3162,-2.3175,-2.3206,-2.3194,-2.3221,-2.3258,-2.3265,-2.3405,-2.338,-2.3398,-2.343,-2.3569,-2.3574,-2.3578,-2.3575,-2.3581,-2.3586,0,0,0,0,0,0,-2.2898,-2.2971,-2.2978,-2.3053,-2.3101,-2.3165,-2.32,-2.3211,-2.3263,-2.3261,-2.3297,-2.3312,-2.3382,-2.3414,-2.3384,-2.3502,-2.3486,-2.3494,-2.3478,-2.3484,-2.3489,-2.3479,-2.3384,0,0,0,0,0,-2.2905,-2.2957,-2.3018,-2.3078,-2.3102,-2.3147,-2.3179,-2.3199,-2.325,-2.327,-2.3313,-2.3362,-2.3418,-2.3453,-2.3507,-2.3583,-2.3597,-2.3614,-2.3618,-2.3622,-2.3628,-2.367,-2.3678,-2.3593,-2.3593,-2.3593,0,0,-2.2918,-2.2964,-2.2995,-2.3077,-2.3116,-2.3169,-2.3164,-2.322,-2.326,-2.3279,-2.3349,-2.3382,-2.344,-2.3515,-2.3549,-2.3543,-2.3655,-2.3627,-2.3629,-2.3633,-2.3675,-2.3683,-2.369,-2.3596,-2.3596,-2.3595,0,0,-2.2969,-2.3009,-2.3064,-2.3104,-2.3164,-2.3194,-2.3207,-2.327,-2.3293,-2.3364,-2.3379,-2.3428,-2.3522,-2.3563,-2.3596,-2.3665,-2.3673,-2.3682,-2.3704,-2.3745,-2.3752,-2.3758,-2.3782,-2.379,-2.3688,-2.3688,-2.3688,0,-2.2977,-2.3058,-2.309,-2.3147,-2.3182,-2.3203,-2.3258,-2.3296,-2.337,-2.3395,-2.3387,-2.3506,-2.3547,-2.3631,-2.3648,-2.3674,-2.369,-2.3673,-2.3748,-2.3755,-2.3761,-2.3784,-2.3793,-2.3688,-2.3688,-2.3688,-2.3688,0,-2.3066,-2.3121,-2.3158,-2.323,-2.327,-2.3326,-2.3367,-2.3404,-2.3421,-2.3452,-2.3525,-2.3575,-2.3639,-2.3661,-2.3678,-2.3748,-2.3742,-2.3741,-2.3725,-2.3769,-2.3791,-2.38,-2.3689,-2.3689,-2.3689,-2.3689,0,0,-2.3111,-2.32,-2.3213,-2.3246,-2.3315,-2.3359,-2.3416,-2.3479,-2.351,-2.3562,-2.3611,-2.3691,-2.3691,-2.3728,-2.375,-2.3786,-2.3837,-2.3781,-2.3783,-2.3789,-2.3917,-2.3916,-2.3926,-2.3844,-2.3846,-2.3847,-2.3912,0,-2.3169,-2.327,-2.3302,-2.3387,-2.3439,-2.346,-2.351,-2.3558,-2.3589,-2.3639,-2.3674,-2.3729,-2.3725,-2.3748,-2.3785,-2.3823,-2.3863,-2.3819,-2.3889,-2.3891,-2.3872,-2.3938,-2.3937,-2.3996,-2.3921,-2.3923,-2.3924,0,-2.325,-2.3303,-2.3393,-2.3456,-2.3479,-2.3523,-2.3584,-2.3631,-2.3686,-2.3706,-2.3749,-2.3768,-2.3829,-2.3812,-2.3897,-2.3866,-2.3897,-2.392,-2.3923,-2.393,-2.3909,-2.3945,-2.4015,-2.4024,-2.3938,-2.3937,-2.3936,0,-2.3272,-2.3366,-2.3433,-2.346,-2.3535,-2.3566,-2.3599,-2.3652,-2.3689,-2.3743,-2.3766,-2.3827,-2.3859,-2.3906,-2.3941,-2.3925,-2.4023,-2.4008,-2.4041,-2.404,-2.4059,-2.4057,-2.4134,-2.4081,-2.4081,-2.4081,-2.4081,0,-2.3333,-2.3387,-2.3444,-2.3484,-2.3546,-2.3583,-2.3643,-2.3677,-2.3725,-2.3773,-2.3795,-2.384,-2.3884,-2.3935,-2.3964,-2.4029,-2.4044,-2.4062,-2.4069,-2.406,-2.4057,-2.4079,-2.4075,-2.4084,-2.4083,-2.4083,-2.4082,0,-2.3368,-2.3408,-2.3482,-2.3547,-2.3565,-2.3607,-2.3663,-2.3704,-2.3737,-2.3797,-2.3814,-2.3865,-2.3926,-2.3967,-2.4045,-2.4064,-2.4135,-2.4142,-2.4116,-2.4119,-2.4149,-2.4145,-2.4242,-2.4256,-2.4195,-2.4195,-2.4196,0,-2.3403,-2.3446,-2.3516,-2.3549,-2.3582,-2.3636,-2.3674,-2.3712,-2.375,-2.3817,-2.3849,-2.3912,-2.3964,-2.406,-2.4105,-2.4165,-2.4172,-2.4202,-2.4181,-2.4171,-2.4172,-2.4168,-2.4173,-2.4205,-2.4205,-2.4206,-2.4206,0,-2.3462,-2.348,-2.3532,-2.3592,-2.3636,-2.3685,-2.3735,-2.3761,-2.3808,-2.385,-2.3912,-2.3953,-2.4033,-2.4095,-2.4159,-2.4194,-2.4208,-2.4213,-2.4223,-2.4213,-2.4196,-2.4205,-2.4124,-2.421,-2.4209,-2.4209,-2.4209,-2.4209,-2.3498,-2.3536,-2.3592,-2.365,-2.3691,-2.3737,-2.3778,-2.3816,-2.3869,-2.3937,-2.3957,-2.4022,-2.4077,-2.4165,-2.4201,-2.4253,-2.425,-2.4265,-2.4269,-2.4272,-2.4272,-2.4189,-2.4265,-2.4265,-2.4265,-2.4265,-2.4265,0,-2.3557,-2.3593,-2.3647,-2.3715,-2.3761,-2.3771,-2.3826,-2.3864,-2.3921,-2.3971,-2.4022,-2.4094,-2.4155,-2.4205,-2.4268,-2.43,-2.4308,-2.4315,-2.4312,-2.432,-2.4271,-2.4256,-2.4307,-2.4307,-2.4307,-2.4307,-2.4307,-2.4307,-2.3592,-2.3658,-2.3683,-2.377,-2.3807,-2.387,-2.3901,-2.3944,-2.3984,-2.4064,-2.4114,-2.4146,-2.4197,-2.4264,-2.432,-2.4333,-2.4355,-2.436,-2.4375,-2.4328,-2.4323,-2.4319,-2.4304,-2.4365,-2.4365,-2.4419,-2.4419,-2.4419]},{"header":{"parameterUnit":"m.s-1","parameterCategory":1,"la1":30.2991,"la2":30.254,"lo1":-89.0895,"lo2":-89.0444,"dy":0.0017,"dx":0.0017,"nx":28,"ny":28,"refTime":"2024-05-03T09:00:00:Z","depth":0,"parameterNumber":3,"parameterNumberName":"V-component_of_WINDS"},"data":[0,0,0,0,0,0,0,0,0,0,0,0,0,0,0,0,0,0,0,0,0,0,0,0,0,0,0,0,0,0,0,0,0,0,0,0,0,0,0,0,0,0,0,0,0,0,0,0,0,0,0,0,0,0,0,0,0,0,4.0228,4.0228,0,4.0257,4.0258,4.0258,4.0327,4.0328,4.033,4.0331,4.0356,4.0356,4.0355,0,0,0,0,0,0,0,0,0,0,0,0,0,4.0229,4.0228,4.0228,4.0228,4.0229,4.0257,4.0258,4.0258,4.0327,4.0328,4.033,4.0332,4.0357,4.0356,4.0355,0,0,0,0,0,0,0,0,0,0,0,0,0,4.024,4.0228,4.0228,4.0267,4.027,4.0257,4.0258,4.0258,4.0326,4.0328,4.0331,4.0333,4.0357,4.0356,4.0355,4.0305,0,0,4.0352,4.0351,0,0,0,0,0,0,0,0,4.0239,4.024,4.026,4.0264,4.0268,4.0291,4.0267,4.0274,4.0326,4.0305,4.0331,4.0334,4.0332,4.0334,4.0334,4.0306,4.0307,4.0352,4.0351,4.0351,4.035,0,0,0,0,0,0,0,4.0238,4.0239,4.0239,4.0261,4.0265,4.0281,4.0285,4.0269,4.0306,4.0307,4.0312,4.0315,4.0335,4.0335,4.0335,4.0308,4.0352,4.0351,4.035,4.035,4.0242,4.024,0,0,0,0,0,0,4.0232,4.0238,4.0238,4.024,4.0259,4.028,4.0284,4.0281,4.0306,4.0312,4.0313,4.0318,4.0336,4.0336,4.0336,4.0281,4.0351,4.035,4.0349,4.0245,4.0242,4.024,0,0,0,0,0,0,4.0232,4.0232,4.0237,4.0241,4.0242,4.0277,4.0273,4.0281,4.0281,4.0311,4.0317,4.0306,4.0337,4.0338,4.0313,4.0283,4.0349,4.0348,4.0247,4.0244,4.0241,4.0169,0,0,0,0,0,0,4.0232,4.0231,4.0213,4.024,4.0242,4.0214,4.0272,4.028,4.0279,4.0286,4.0306,4.0312,4.0339,4.0314,4.0312,4.0283,4.0347,4.025,4.0246,4.0242,4.0174,4.0164,4.0155,0,0,0,0,0,4.0232,4.019,4.0212,4.0212,4.022,4.0212,4.0213,4.0247,4.0277,4.0259,4.0278,4.0311,4.0287,4.0311,4.0309,4.0279,4.0252,4.0247,4.0242,4.0179,4.0166,4.0155,0,0,0,0,0,0,4.0157,4.0195,4.0219,4.0185,4.0195,4.0224,4.0202,4.0232,4.0232,4.0239,4.0279,4.0283,4.0253,4.0263,4.029,4.0233,4.0275,4.0269,4.0227,4.0215,4.0206,4.0203,4.0347,0,0,0,0,0,4.0137,4.0129,4.0161,4.0128,4.0133,4.0166,4.0164,4.0189,4.0201,4.0205,4.0223,4.0231,4.0226,4.0221,4.0218,4.0176,4.0182,4.0155,4.0145,4.0137,4.0131,4.0112,4.01,4.0223,4.0223,4.0223,0,0,4.0095,4.0115,4.0106,4.0114,4.0125,4.0115,4.0169,4.0155,4.0148,4.0202,4.0181,4.0194,4.0207,4.0174,4.016,4.0182,4.0099,4.013,4.0124,4.0123,4.0105,4.0094,4.0083,4.022,4.022,4.0221,0,0,4.0014,4.0027,4.0002,4.0013,4.0029,4.0053,4.0046,4.0071,4.0083,4.0063,4.0104,4.0095,4.0084,4.0092,4.0094,4.0018,4.0049,4.0016,3.9964,3.9945,3.9935,3.9927,3.99,3.989,4.001,4.001,4.001,0,3.9959,3.9946,3.9985,3.997,3.9972,4.0023,3.9998,4.0006,4.0019,4.0019,4.0044,4.0033,4.0045,4.0016,3.9997,3.9997,3.9992,4.0013,3.9934,3.9925,3.9918,3.9893,3.9883,4.0006,4.0007,4.0007,4.0007,0,3.9878,3.9869,3.9847,3.9861,3.9861,3.984,3.9876,3.9871,3.9897,3.9917,3.9896,3.9913,3.9914,3.9909,3.9933,3.9883,3.9897,3.9926,3.9969,3.9902,3.9879,3.987,4.0,4.0002,4.0003,4.0004,0,0,3.9749,3.9788,3.9779,3.9787,3.981,3.9803,3.9785,3.9789,3.9784,3.9792,3.9778,3.9769,3.9798,3.9801,3.9826,3.9809,3.9749,3.9842,3.9843,3.9824,3.9697,3.9674,3.9662,3.977,3.9768,3.9767,3.9696,0,3.9673,3.9646,3.9682,3.9647,3.9639,3.9688,3.9673,3.9685,3.9704,3.9699,3.972,3.9713,3.9751,3.9754,3.9739,3.9759,3.9724,3.9765,3.9757,3.9756,3.9752,3.9651,3.9626,3.9558,3.9687,3.9686,3.9685,0,3.958,3.9587,3.9552,3.9579,3.9577,3.9563,3.957,3.9565,3.958,3.9595,3.96,3.9631,3.9615,3.9657,3.9636,3.9663,3.9662,3.9672,3.967,3.967,3.9716,3.9648,3.9537,3.9527,3.9671,3.9672,3.9673,0,3.9491,3.949,3.947,3.9475,3.9506,3.9495,3.9507,3.9525,3.9525,3.9531,3.9532,3.9535,3.9536,3.9538,3.9569,3.9597,3.9544,3.9588,3.9556,3.9555,3.9543,3.9543,3.943,3.9541,3.9541,3.9541,3.9542,0,3.9402,3.9379,3.9431,3.9418,3.9393,3.9434,3.9408,3.9425,3.9441,3.9432,3.9474,3.9465,3.9507,3.9502,3.9526,3.9505,3.9505,3.9517,3.9524,3.9513,3.9512,3.9513,3.9519,3.9539,3.9539,3.954,3.954,0,3.9298,3.9331,3.9313,3.9345,3.9352,3.9333,3.936,3.9349,3.9372,3.936,3.9359,3.9394,3.9391,3.9423,3.9424,3.9441,3.9409,3.9423,3.9404,3.9409,3.9375,3.9378,3.9259,3.9246,3.9365,3.9364,3.9363,0,3.9239,3.9223,3.9254,3.9252,3.9263,3.9259,3.9261,3.93,3.93,3.9317,3.9304,3.9305,3.9307,3.9299,3.9324,3.9326,3.9341,3.93,3.9342,3.9333,3.9342,3.9342,3.9341,3.9291,3.9289,3.9288,3.9287,0,3.9132,3.9151,3.9152,3.9159,3.9161,3.9168,3.9178,3.9173,3.9217,3.9214,3.9213,3.9215,3.9218,3.9218,3.9225,3.9237,3.9269,3.9274,3.9267,3.9256,3.9246,3.9252,3.938,3.9276,3.9277,3.9278,3.9278,3.9279,3.905,3.9038,3.9059,3.906,3.9072,3.9081,3.9073,3.9096,3.9095,3.9102,3.9126,3.912,3.9137,3.915,3.9159,3.9155,3.9175,3.9164,3.9162,3.9158,3.9153,3.9246,3.9156,3.9157,3.9157,3.9157,3.9157,0,3.8946,3.8962,3.8963,3.8977,3.8977,3.9009,3.9022,3.902,3.9015,3.9029,3.9031,3.903,3.903,3.9056,3.906,3.9052,3.9066,3.9051,3.9052,3.9055,3.9134,3.914,3.9039,3.9039,3.9039,3.9039,3.9039,3.9039,3.8892,3.8875,3.8895,3.8885,3.8901,3.8897,3.8902,3.8911,3.8922,3.8919,3.8921,3.8938,3.8957,3.8963,3.8965,3.8972,3.8972,3.8952,3.8964,3.9037,3.9049,3.906,3.9066,3.8951,3.8951,3.8886,3.8885,3.8884]}]]